Location: Tel Aviv
(32.0670°N, 34.7670°E)
Time: 09:35:31
(UTC+02:00)

A-11 Canister half - Pass Details

Date: 11 December 2023
Orbit: 1526 x 1682 km, 47.3° (Epoch: 01 March)

Event Time Altitude Azimuth Distance (km) Brightness Sun altitude
Rises 17:55:48 0° 260° (W) 4,905 13.4 -16.3°
Reaches altitude 10° 17:59:11 10° 267° (W) 3,929 12.4 -17.0°
Maximum altitude 18:08:45 45° 338° (NNW) 2,167 9.8 -19.0°
Enters shadow 18:15:37 20° 40° (NE) 3,196 10.2 -20.4°
